Weather History for Phoenix-Mesa Gateway Airport, AZ

Change the Weather History Date:

Tuesday, February 12, 2013

  Actual Average Record
Temperature  
Mean Temperature 44 °F -  
Max Temperature 55 °F 65 °F 80 °F (2006)
Min Temperature 32 °F 43 °F 32 °F (2013)
Degree Days  
Heating Degree Days 22    
Moisture  
Dew Point 29 °F    
Average Humidity 65    
Maximum Humidity 93    
Minimum Humidity 25    
Precipitation  
Precipitation 0.00 in - - ()
Sea Level Pressure  
Sea Level Pressure 30.23 in    
Wind  
Wind Speed 4 mph (ESE)    
Max Wind Speed 8 mph    
Max Gust Speed -    
Visibility 12 miles    
Events      
Averages and records for this station are not official NWS values.
T = Trace of Precipitation, MM = Missing Value Source: NWS Daily Summary

Daily Weather History Graph

Daily Weather History Graph

Search for Another Location

Airport:

Trip Planner

Search our weather history database for the weather conditions in past years. The results will help you decide how hot, cold, wet, or windy it might be!

Date:

Astronomy

Feb. 12, 2013 Rise Set
Actual Time 7:13 AM MST 6:09 PM MST
Civil Twilight 6:47 AM MST 6:34 PM MST
Nautical Twilight 6:18 AM MST 7:03 PM MST
Astronomical Twilight 5:49 AM MST 7:32 PM MST
Moon 8:23 AM MST (2/12) 9:00 PM MST (2/12)
Length of Visible Light 11h 47m
Length of Day
10h 56m
Waxing Crescent, 8% of the Moon is Illuminated
Feb 12
Waxing Crescent
Feb 17
First Quarter
Feb 25
Full
Mar 4
Last Quarter
Mar 11
New

Hourly Weather History & Observations

Time (MST) Temp. Windchill Dew Point Humidity Pressure Visibility Wind Dir Wind Speed Gust Speed Precip Events Conditions
12:15 AM 37.4 °F 34.9 °F 33.8 °F 87% 30.20 in 10.0 mi East 3.5 mph - N/A   Clear
12:35 AM 37.4 °F 33.8 °F 33.8 °F 87% 30.21 in 10.0 mi ESE 4.6 mph - N/A   Clear
12:55 AM 37.4 °F 33.8 °F 33.8 °F 87% 30.21 in 10.0 mi East 4.6 mph - N/A   Clear
1:15 AM 37.4 °F 32.8 °F 33.8 °F 87% 30.21 in 10.0 mi ESE 5.8 mph - N/A   Clear
1:35 AM 37.4 °F 32.8 °F 33.8 °F 87% 30.20 in 10.0 mi SE 5.8 mph - N/A   Clear
1:55 AM 37.4 °F 32.8 °F 33.8 °F 87% 30.20 in 10.0 mi East 5.8 mph - N/A   Clear
2:15 AM 33.8 °F - 32.0 °F 93% 30.21 in 10.0 mi Calm Calm - N/A   Clear
2:35 AM 33.8 °F 30.8 °F 32.0 °F 93% 30.21 in 10.0 mi ESE 3.5 mph - N/A   Clear
2:55 AM 33.8 °F 27.7 °F 32.0 °F 93% 30.21 in 10.0 mi East 6.9 mph - N/A   Clear
3:15 AM 35.6 °F 29.2 °F 32.0 °F 87% 30.21 in 10.0 mi ESE 8.1 mph - N/A   Clear
3:35 AM 35.6 °F 31.7 °F 32.0 °F 87% 30.21 in 10.0 mi East 4.6 mph - N/A   Clear
3:55 AM 33.8 °F 28.6 °F 32.0 °F 93% 30.21 in 10.0 mi East 5.8 mph - N/A   Clear
4:15 AM 33.8 °F 28.6 °F 32.0 °F 93% 30.21 in 10.0 mi East 5.8 mph - N/A   Clear
4:35 AM 33.8 °F 29.6 °F 32.0 °F 93% 30.21 in 10.0 mi ESE 4.6 mph - N/A   Clear
4:55 AM 33.8 °F 29.6 °F 32.0 °F 93% 30.22 in 10.0 mi SE 4.6 mph - N/A   Clear
5:15 AM 32.0 °F 27.5 °F 30.2 °F 93% 30.23 in 10.0 mi ESE 4.6 mph - N/A   Clear
5:47 AM 33.8 °F 28.6 °F 30.2 °F 87% 30.23 in 20.0 mi East 5.8 mph - N/A   Clear
6:47 AM 33.8 °F 28.6 °F 30.2 °F 87% 30.25 in 20.0 mi East 5.8 mph - N/A   Partly Cloudy
8:47 AM 39.2 °F 37.0 °F 35.6 °F 87% 30.30 in 20.0 mi ESE 3.5 mph - N/A   Scattered Clouds
10:55 AM 46.4 °F 45.2 °F 35.6 °F 66% 30.32 in 30.0 mi Variable 3.5 mph - N/A   Partly Cloudy
11:47 AM 48.2 °F - 33.8 °F 58% 30.31 in 30.0 mi Calm Calm - N/A   Partly Cloudy
12:47 PM 53.6 °F - 32.0 °F 44% 30.28 in 30.0 mi WNW 5.8 mph - N/A   Partly Cloudy
1:47 PM 53.6 °F - 26.6 °F 35% 30.25 in 30.0 mi WNW 4.6 mph - N/A   Partly Cloudy
2:47 PM 53.6 °F - 24.8 °F 33% 30.23 in 30.0 mi Calm Calm - N/A   Partly Cloudy
3:47 PM 55.4 °F - 19.4 °F 25% 30.21 in 30.0 mi NW 6.9 mph - N/A   Partly Cloudy
4:47 PM 55.4 °F - 19.4 °F 25% 30.20 in 45.0 mi WNW 5.8 mph - N/A   Partly Cloudy
5:47 PM 55.4 °F - 24.8 °F 31% 30.21 in 45.0 mi WNW 5.8 mph - N/A   Clear
6:47 PM 53.6 °F - 28.4 °F 38% 30.22 in 45.0 mi West 6.9 mph - N/A   Clear
7:47 PM 51.8 °F - 23.0 °F 33% 30.23 in 20.0 mi West 5.8 mph - N/A   Clear
7:55 PM 50.0 °F - 24.8 °F 37% 30.23 in 10.0 mi WNW 3.5 mph - N/A   Clear
8:15 PM 50.0 °F - 26.6 °F 40% 30.23 in 10.0 mi WNW 3.5 mph - N/A   Clear
8:35 PM 46.4 °F - 24.8 °F 43% 30.23 in 10.0 mi Calm Calm - N/A   Clear
8:47 PM 46.4 °F - 24.8 °F 43% 30.23 in 20.0 mi Calm Calm - N/A   Clear
8:55 PM 46.4 °F - 26.6 °F 46% 30.24 in 10.0 mi Calm Calm - N/A   Clear
9:15 PM 44.6 °F - 26.6 °F 49% 30.24 in 10.0 mi Calm Calm - N/A   Clear
9:35 PM 42.8 °F 41.1 °F 26.6 °F 53% 30.24 in 10.0 mi East 3.5 mph - N/A   Clear
9:55 PM 42.8 °F 40.1 °F 26.6 °F 53% 30.24 in 10.0 mi East 4.6 mph - N/A   Clear
10:15 PM 42.8 °F - 28.4 °F 57% 30.24 in 10.0 mi Calm Calm - N/A   Clear
10:35 PM 41.0 °F - 28.4 °F 61% 30.24 in 10.0 mi Calm Calm - N/A   Clear
10:55 PM 41.0 °F 38.0 °F 28.4 °F 61% 30.24 in 10.0 mi SE 4.6 mph - N/A   Clear
11:15 PM 41.0 °F - 28.4 °F 61% 30.23 in 10.0 mi Calm Calm - N/A   Clear
11:35 PM 41.0 °F 37.1 °F 28.4 °F 61% 30.22 in 10.0 mi SE 5.8 mph - N/A   Clear
11:55 PM 41.0 °F 39.0 °F 28.4 °F 61% 30.23 in 10.0 mi ESE 3.5 mph - N/A   Clear